RH
26 26 25 23 21 20 17 17 16 17 17 18 22 28 32 35 36 39 41 41 44 42 38 33 31 31 31 30 29 27 26 28
26 26 23 20 19 16 15 15 15 15 14 13 14 16 18 20 21 24 29 33 37 38 34 32 32 31 29 29 30 29 29 30
26 24 21 20 19 17 17 17 17 16 16 15 15 16 16 16 16 16 17 17 17 18 22 27 30 32 30 28 29 28 27 33
25 24 21 20 19 18 18 19 19 19 18 18 17 17 16 14 14 13 12 11 10 9 9 11 13 14 20 27 30 32 33 34
24 24 22 21 20 19 19 20 20 20 20 19 19 19 17 15 14 12 12 11 8 6 6 6 8 8 8 14 22 27 30 29
25 24 23 21 21 21 20 20 21 21 21 21 21 20 18 17 16 16 14 11 7 6 6 6 6 6 6 6 9 16 22 26
27 26 24 22 22 21 21 22 22 22 22 24 23 21 20 19 17 14 13 12 9 7 6 6 6 6 6 7 8 8 15 21
30 28 26 23 23 23 23 23 22 23 25 25 24 23 22 20 17 15 13 12 11 10 9 8 7 7 7 7 7 8 9 10
31 31 28 26 26 25 22 22 24 25 26 27 26 24 21 19 17 15 13 12 11 10 10 9 9 8 8 8 8 8 8 9
35 32 30 29 27 25 24 24 24 25 26 27 26 24 20 17 14 13 11 11 10 10 10 9 9 9 8 8 8 8 9 9
36 31 28 27 27 28 29 28 26 26 26 26 26 25 22 17 14 13 12 11 11 10 10 9 9 9 9 9 9 9 10 10
36 31 28 29 31 31 33 30 28 29 28 27 25 24 23 21 17 16 14 13 13 12 12 11 11 10 10 10 9 10 13 15
39 37 33 32 34 34 34 32 31 31 30 30 27 25 24 24 24 21 19 18 18 17 16 15 14 13 12 12 12 13 16 19
41 42 39 35 36 38 37 35 36 36 34 32 30 28 27 26 27 26 25 24 23 23 22 21 20 20 21 22 22 22 20 21
41 43 42 41 38 36 36 37 36 38 36 34 32 31 31 31 32 31 30 30 29 28 26 26 26 27 30 33 33 32 30 28
40 43 44 42 36 35 37 38 38 37 36 36 35 36 37 38 38 37 36 34 32 32 32 33 37 35 33 37 37 40 41 33
43 46 48 45 41 38 37 37 38 37 35 35 37 38 39 39 40 41 41 39 37 35 33 33 35 38 38 38 37 37 38 41
51 49 50 49 44 40 38 37 36 36 36 38 40 41 43 45 47 45 41 39 37 34 34 34 38 39 38 38 38 38 38 40
60 56 54 46 41 40 38 36 36 38 40 43 46 47 48 48 49 49 47 44 41 39 38 37 39 37 36 36 36 37 38 39
67 62 55 49 48 49 49 49 50 51 51 53 54 56 57 57 55 51 47 44 42 40 39 38 37 37 36 37 36 35 35 37